Kayseri, Turkey

8:32 PM +03 on December 14, 2017 (GMT +0300)
Erkilet Air Base

Weather History for LTAU - January, 2013

Change the Weather History Date:

Monday, January 7, 2013

  Actual Average Record
Temperature  
Mean Temperature 27 °F -  
Max Temperature 30 °F 39 °F 57 °F (2003)
Min Temperature 24 °F 20 °F -5 °F (2008)
Degree Days  
Heating Degree Days 38    
Moisture  
Dew Point 25 °F    
Average Humidity 90    
Maximum Humidity 100    
Minimum Humidity 69    
Precipitation  
Precipitation 0.16 in - - ()
Sea Level Pressure  
Sea Level Pressure 29.53 in    
Wind  
Wind Speed 5 mph ()    
Max Wind Speed 13 mph    
Max Gust Speed -    
Visibility 2.5 miles    
Events Snow    
Averages and records for this station are not official NWS values.
T = Trace of Precipitation, MM = Missing Value Source: Averaged Metar Reports

Daily Weather History Graph

Daily Weather History Graph

Search for Another Location

Airport or City:

Trip Planner

Search our weather history database for the weather conditions in past years. The results will help you decide how hot, cold, wet, or windy it might be!

Date:

Astronomy

Jan. 07, 2013 Rise Set
Actual Time 6:56 AM EET 4:32 PM EET
Civil Twilight 6:27 AM EET 5:02 PM EET
Nautical Twilight 5:54 AM EET 5:35 PM EET
Astronomical Twilight 5:22 AM EET 6:07 PM EET
Moon 1:57 AM EET (1/7) 12:26 PM EET (1/7)
Length of Visible Light 10h 34m
Length of Day
9h 35m
Waning Crescent, 26% of the Moon is Illuminated
Jan 7
Waning Crescent
Jan 11
New
Jan 19
First Quarter
Jan 27
Full
Feb 3
Last Quarter

Hourly Weather History & Observations

Time (EET) Temp. Windchill Dew Point Humidity Pressure Visibility Wind Dir Wind Speed Gust Speed Precip Events Conditions
12:20 AM 32.0 °F 22.5 °F 24.8 °F 75% 29.56 in 6.2 mi East 12.7 mph - N/A   Mostly Cloudy
12:50 AM 30.2 °F 20.8 °F 24.8 °F 80% 29.53 in 6.2 mi ENE 11.5 mph - N/A   Mostly Cloudy
1:20 AM 30.2 °F 23.4 °F 24.8 °F 80% 29.53 in 6.2 mi East 6.9 mph - N/A   Mostly Cloudy
1:50 AM 30.2 °F 23.4 °F 26.6 °F 86% 29.53 in 6.2 mi East 6.9 mph - N/A Snow Light Snow
2:00 AM 30 °F - 26 °F 77%  in 6 mi East 6.9 mph - - Snow Light Snow
2:20 AM 30.2 °F 23.4 °F 26.6 °F 86% 29.50 in 3.7 mi East 6.9 mph - N/A Snow Light Snow
2:50 AM 28.4 °F 21.2 °F 26.6 °F 93% 29.50 in 3.7 mi East 6.9 mph - N/A Snow Light Snow
3:20 AM 28.4 °F 23.3 °F 26.6 °F 93% 29.50 in 3.7 mi East 4.6 mph - N/A Snow Light Snow
3:50 AM 28.4 °F - 26.6 °F 93% 29.47 in 2.8 mi Variable 1.2 mph - N/A Snow Light Snow
4:20 AM 28.4 °F - 26.6 °F 93% 29.47 in 2.5 mi Variable 1.2 mph - N/A Snow Light Snow
4:50 AM 28.4 °F - 26.6 °F 93% 29.47 in 1.7 mi Calm Calm - N/A Snow Light Snow
5:20 AM 28.4 °F - 26.6 °F 93% 29.47 in 1.8 mi Calm Calm - N/A Snow Light Snow
5:50 AM 28.4 °F - 26.6 °F 93% 29.47 in 1.7 mi Calm Calm - N/A Snow Light Snow
6:20 AM 28.4 °F - 28.4 °F 100% 29.47 in 1.7 mi SW 1.2 mph - N/A Snow Light Snow
6:50 AM 28.4 °F - 28.4 °F 100% 29.47 in 1.2 mi SW 2.3 mph - N/A Snow Light Snow
7:20 AM 28.4 °F 22.2 °F 26.6 °F 93% 29.47 in 0.8 mi West 5.8 mph - N/A Snow Light Snow
7:50 AM 28.4 °F 21.2 °F 26.6 °F 93% 29.47 in 0.7 mi West 6.9 mph - N/A Snow Light Snow
8:00 AM 28 °F - 27 °F 94%  in 1 mi WSW 6.9 mph - - Snow Light Snow
8:20 AM 28.4 °F 24.6 °F 26.6 °F 93% 29.47 in 1.2 mi West 3.5 mph - N/A Snow Light Snow
8:50 AM 28.4 °F 24.6 °F 26.6 °F 93% 29.50 in 1.4 mi WSW 3.5 mph - N/A Snow Light Snow
9:20 AM 28.4 °F 23.3 °F 28.4 °F 100% 29.50 in 0.7 mi WSW 4.6 mph - N/A Snow Light Snow
9:50 AM 28.4 °F 21.2 °F 26.6 °F 93% 29.50 in 0.8 mi WSW 6.9 mph - N/A Snow Light Snow
10:20 AM 28.4 °F 19.7 °F 26.6 °F 93% 29.50 in 0.9 mi WSW 9.2 mph - N/A Snow Light Snow
10:50 AM 28.4 °F 19.1 °F 26.6 °F 93% 29.47 in 1.3 mi West 10.4 mph - N/A Snow Light Snow
11:20 AM 28.4 °F 21.2 °F 26.6 °F 93% 29.47 in 0.7 mi WSW 6.9 mph - N/A Snow Light Snow
11:50 AM 28.4 °F 22.2 °F 28.4 °F 100% 29.47 in 0.9 mi WSW 5.8 mph - N/A Snow Light Snow
12:20 PM 28.4 °F 23.3 °F 28.4 °F 100% 29.47 in 0.7 mi WSW 4.6 mph - N/A Snow Light Snow
12:50 PM 28.4 °F - 28.4 °F 100% 29.50 in 0.9 mi Variable 1.2 mph - N/A Snow Light Snow
1:20 PM 28.4 °F - 28.4 °F 100% 29.50 in 0.9 mi Calm Calm - N/A Snow Light Snow
1:50 PM 30.2 °F - 28.4 °F 93% 29.50 in 1.2 mi Calm Calm - N/A Snow Light Snow
2:00 PM 30 °F - 29 °F 94%  in 1 mi Calm Calm - - Snow Light Snow
2:20 PM 30.2 °F - 28.4 °F 93% 29.50 in 2.8 mi Variable 2.3 mph - N/A   Overcast
2:50 PM 28.4 °F 19.1 °F 26.6 °F 93% 29.50 in 2.8 mi North 10.4 mph - N/A Snow Light Snow
3:20 PM 28.4 °F 19.1 °F 24.8 °F 86% 29.53 in 1.9 mi North 10.4 mph - N/A Snow Light Snow
3:50 PM 28.4 °F 19.1 °F 24.8 °F 86% 29.53 in 1.6 mi North 10.4 mph - N/A Snow Light Snow
4:20 PM 28.4 °F 19.1 °F 24.8 °F 86% 29.53 in 1.2 mi North 10.4 mph - N/A Snow Light Snow
4:50 PM 28.4 °F 19.7 °F 24.8 °F 86% 29.56 in 1.8 mi North 9.2 mph - N/A Snow Light Snow
5:20 PM 28.4 °F 19.1 °F 24.8 °F 86% 29.56 in 2.8 mi North 10.4 mph - N/A Snow Light Snow
5:50 PM 28.4 °F 19.1 °F 23.0 °F 80% 29.59 in 2.8 mi North 10.4 mph - N/A Snow Light Snow
6:20 PM 26.6 °F 22.6 °F 23.0 °F 86% 29.59 in - NE 3.5 mph - N/A Snow Light Snow
6:50 PM 26.6 °F 21.2 °F 21.2 °F 80% 29.59 in 6.2 mi NNE 4.6 mph - N/A   Overcast
7:20 PM 26.6 °F 22.6 °F 21.2 °F 80% 29.62 in 3.7 mi NE 3.5 mph - N/A   Overcast
7:50 PM 26.6 °F 21.2 °F 21.2 °F 80% 29.62 in 3.7 mi North 4.6 mph - N/A   Overcast
8:00 PM 27 °F - 21 °F 69%  in 4 mi North 4.6 mph - -   Mist
8:20 PM 26.6 °F 21.2 °F 21.2 °F 80% 29.62 in 2.5 mi North 4.6 mph - N/A Snow Light Snow
8:50 PM 26.6 °F - 21.2 °F 80% 29.62 in 2.5 mi Variable 1.2 mph - N/A Snow Light Snow
9:20 PM 24.8 °F - 21.2 °F 86% 29.62 in 2.5 mi Calm Calm - N/A Snow Light Snow
9:50 PM 24.8 °F - 23.0 °F 93% 29.65 in - Calm Calm - N/A Snow Light Snow
10:20 PM 24.8 °F - 23.0 °F 93% 29.65 in 2.8 mi Calm Calm - N/A Snow Light Snow
10:50 PM 24.8 °F - 23.0 °F 93% 29.65 in - Calm Calm - N/A Snow Light Snow
11:20 PM 24.8 °F - 23.0 °F 93% 29.65 in 2.8 mi Calm Calm - N/A Snow Light Snow
11:50 PM 24.8 °F - 23.0 °F 93% 29.65 in 2.5 mi Calm Calm - N/A Snow Light Snow